TimeCAT,TemperatureF,Dew PointF,Humidity,Sea Level PressureIn,VisibilityMPH,Wind Direction,Wind SpeedMPH,Gust SpeedMPH,PrecipitationIn,Events,Conditions,WindDirDegrees,DateUTC
12:00 AM,78.8,62.6,57,30.06,-9999.0,NE,3.5,-,N/A,,Clear,50,2013-01-28 22:00:00
1:00 AM,77.0,60.8,57,30.04,-9999.0,East,6.9,-,N/A,,Clear,90,2013-01-28 23:00:00
2:00 AM,76,60,49,,6,ENE,6.9,,,,,70,2013-01-29 00:00:00
2:00 AM,77.0,60.8,57,30.04,-9999.0,ENE,6.9,-,N/A,,Clear,70,2013-01-29 00:00:00
4:00 AM,75.2,62.6,65,30.04,-9999.0,Variable,2.3,-,N/A,,Clear,0,2013-01-29 02:00:00
5:00 AM,73.4,62.6,69,30.04,-9999.0,East,3.5,-,N/A,,Clear,80,2013-01-29 03:00:00
6:00 AM,68.0,60.8,78,30.06,-9999.0,ESE,6.9,-,N/A,,Clear,120,2013-01-29 04:00:00
7:00 AM,71.6,60.8,69,30.06,-9999.0,East,8.1,-,N/A,,Clear,100,2013-01-29 05:00:00
8:00 AM,78,62,48,,6,East,9.2,,,,,80,2013-01-29 06:00:00
8:00 AM,78.8,62.6,57,30.09,-9999.0,East,9.2,-,N/A,,Clear,80,2013-01-29 06:00:00
9:00 AM,82.4,60.8,48,30.09,-9999.0,East,12.7,-,N/A,,Clear,90,2013-01-29 07:00:00
10:00 AM,86.0,62.6,45,30.09,-9999.0,East,11.5,-,N/A,,Clear,100,2013-01-29 08:00:00
11:00 AM,87.8,62.6,43,30.09,-9999.0,East,9.2,-,N/A,,Clear,90,2013-01-29 09:00:00
12:00 PM,91.4,64.4,41,30.09,6.2,ENE,6.9,-,N/A,,Partly Cloudy,60,2013-01-29 10:00:00
1:00 PM,91.4,64.4,41,30.06,6.2,NNE,6.9,-,N/A,,Scattered Clouds,20,2013-01-29 11:00:00
2:00 PM,90,64,32,,6,NNE,3.5,,,,Partly Cloudy,20,2013-01-29 12:00:00
2:00 PM,89.6,64.4,43,30.04,6.2,NNE,3.5,-,N/A,,Scattered Clouds,20,2013-01-29 12:00:00
3:00 PM,93.2,64.4,38,30.01,6.2,ENE,5.8,-,N/A,,Scattered Clouds,70,2013-01-29 13:00:00
4:00 PM,93.2,64.4,38,29.98,6.2,North,5.8,-,N/A,,Scattered Clouds,350,2013-01-29 14:00:00
5:00 PM,91.4,64.4,41,29.98,6.2,NE,3.5,-,N/A,,Scattered Clouds,40,2013-01-29 15:00:00
6:00 PM,89.6,64.4,43,29.98,6.2,NE,6.9,-,N/A,,Partly Cloudy,40,2013-01-29 16:00:00
7:00 PM,87.8,64.4,46,29.98,6.2,NE,3.5,-,N/A,,Partly Cloudy,50,2013-01-29 17:00:00
9:00 PM,82.4,68.0,62,30.01,-9999.0,Variable,2.3,-,N/A,,Clear,0,2013-01-29 19:00:00
10:00 PM,82.4,60.8,48,30.04,-9999.0,ESE,9.2,-,N/A,,Clear,110,2013-01-29 20:00:00
11:00 PM,80.6,64.4,58,30.06,-9999.0,East,6.9,-,N/A,,Clear,100,2013-01-29 21:00:00